Location: Dillon
(41.1766°N, 107.0923°W)
Time: 11:27:17
(UTC+00:00)

AO-92 - Pass Details

Date: 03 July 2022
Orbit: 469 x 481 km, 97.4° (Epoch: 09 August)

Event Time Altitude Azimuth Distance (km) Brightness Sun altitude
Exits shadow 04:40:15 28° 96° (E) 924 ? -16.8°
Maximum altitude 04:40:59 31° 72° (ENE) 865 ? -16.9°
Drops below altitude 10° 04:44:10 10° 9° (N) 1,667 ? -17.2°
Sets 04:46:23 0° 359° (N) 2,554 ? -17.5°
